• Join FlightAware (Why Join?)
  • Login
  • US Flag 
07:30AM EDT


 

Airport Tracker/Info


-or-


 

Live Flight TrackerFlight Track Log ✈ EJA929 ✈ 21-Oct-2013 ✈ KPTK - KCMH

Flight Track Log - Related Links

Times and Time Zones

All times are in EDT time to prevent confusion due to time zone crossing. See the EJA929 flight status page for this flight to view local times or setup timezone preferences in your user account.

Time Position Orientation Groundspeed Altitude Reporting Facility
EDT Latitude Longitude Course Direction KTS MPH feet Rate Location/Type
05:27PM 42.6617 -83.4631 264° West 168 193 2,800  Level Cleveland Center
05:27PM 42.6639 -83.4814 279° West 185 213 3,400 2,160 Climbing Cleveland Center
05:28PM 42.7181 -83.4939 350° North 278 320 5,000 1,980 Climbing Cleveland Center
05:28PM 42.7372 -83.4756 35° Northeast 295 339 5,500 3,420 Climbing Cleveland Center
05:29PM 42.7550 -83.3942 73° East 343 395 8,500 3,960 Climbing Cleveland Center
05:29PM 42.7569 -83.3603 86° East 340 391 9,600 3,120 Climbing Cleveland Center
05:30PM 42.6947 -83.3033 146° Southeast 315 362 12,700 2,460 Climbing Cleveland Center
05:31PM 42.6033 -83.3181 187° South 333 383 14,700 2,040 Climbing Cleveland Center
05:32PM 42.5089 -83.3211 181° South 339 390 17,000 2,340 Climbing Cleveland Center
05:33PM 42.4006 -83.3236 181° South 335 386 19,600 2,220 Climbing Cleveland Center
05:34PM 42.3017 -83.3256 181° South 347 399 21,700 1,140 Climbing Cleveland Center
05:35PM 42.1950 -83.3283 181° South 379 436 22,000 120 Climbing Cleveland Center
05:36PM 42.0797 -83.3317 181° South 409 471 22,000  Level Cleveland Center
05:37PM 41.9644 -83.3333 181° South 411 473 22,000  Level Cleveland Center
05:38PM 41.8417 -83.3361 181° South 413 475 22,000  Level Cleveland Center
05:39PM 41.7253 -83.3394 181° South 418 481 22,000  Level Cleveland Center
05:40PM 41.6089 -83.3364 179° South 419 482 22,000  Level Cleveland Center
05:41PM 41.4736 -83.3617 188° South 414 476 22,000  Level Cleveland Center
05:42PM 41.3714 -83.4211 204° Southwest 403 464 22,000  Level Cleveland Center
05:43PM 41.2586 -83.4556 193° South 420 483 22,000 -720 Level Cleveland Center
05:45PM 41.1394 -83.4278 170° South 435 501 20,600 -1,800 Descending Cleveland Center
05:46PM 41.0111 -83.3944 169° South 428 493 18,300 -2,160 Descending Cleveland Center
05:47PM 40.8975 -83.3647 169° South 417 480 16,200 -2,040 Descending Cleveland Center
05:48PM 40.7858 -83.3378 170° South 410 472 14,200 -1,980 Descending Cleveland Center
05:49PM 40.6786 -83.3111 169° South 396 456 12,200 -1,620 Descending Cleveland Center
05:50PM 40.5722 -83.2842 169° South 391 450 10,900 -660 Descending Cleveland Center
05:50PM 40.4950 -83.2261 150° Southeast 389 448 11,100 120 Climbing Indianapolis Center
05:51PM 40.4536 -83.1694 134° Southeast 392 451 11,100 -420 Level Indianapolis Center
05:51PM 40.4161 -83.1278 140° Southeast 399 459 10,700 -1,020 Descending Indianapolis Center
05:52PM 40.3722 -83.0697 135° Southeast 399 459 10,100 -660 Descending Indianapolis Center
05:52PM 40.3411 -83.0358 140° Southeast 397 457 10,100 -120 Level Indianapolis Center
05:53PM 40.2900 -82.9706 136° Southeast 399 459 10,000 -240 Descending Indianapolis Center
05:54PM 40.2186 -82.8872 138° Southeast 367 422 9,800 -540 Descending Indianapolis Center
05:54PM 40.1997 -82.8617 134° Southeast 363 418 9,500 -1,440 Descending Indianapolis Center
05:55PM 40.1386 -82.7872 137° Southeast 308 354 7,900 -1,980 Descending Indianapolis Center
05:56PM 40.0989 -82.7503 145° Southeast 280 322 6,300 -2,400 Descending Indianapolis Center
05:56PM 40.0728 -82.7356 157° South 282 325 5,400 -2,220 Descending Indianapolis Center
05:57PM 40.0269 -82.7336 178° South 221 254 3,900 -1,800 Descending Indianapolis Center
05:57PM 40.0097 -82.7397 195° South 259 298 3,600 -1,320 Descending Indianapolis Center
05:57PM 39.9994 -82.7592 235° Southwest 196 226 3,100 -1,380 Descending Indianapolis Center
05:58PM 39.9958 -82.8056 264° West 216 249 2,200 -1,320 Descending Indianapolis Center
05:58PM 39.9972 -82.8272 275° West 173 199 1,800 -780 Descending Indianapolis Center
05:59PM 40.0003 -82.8681 276° West 189 217 1,400 -480 Descending Indianapolis Center
06:01PM 39.9833 -82.8833 226° Southwest  Level FlightAware Approximate